Location: Earls Croome
(52.0667°N, 2.2000°W)
Time: 23:44:45
(UTC+00:00)

Cosmos 1833 Rocket - Pass Details

Date: 17 November 2019
Orbit: 832 x 840 km, 71.0° (Epoch: 06 December)

Event Time Altitude Azimuth Distance (km) Brightness Sun altitude
Exits shadow 06:22:41 13° 294° (WNW) 2,215 4.2 -10.5°
Maximum altitude 06:25:36 19° 330° (NNW) 1,895 4.1 -10.1°
Drops below altitude 10° 06:29:33 10° 14° (NNE) 2,459 5.1 -9.5°
Sets 06:32:45 0° 32° (NNE) 3,398 6.0 -9.0°
